Flag for U.S.A. Weather past 2 weeks in Philadelphia, Pennsylvania, U.S.A.

Now
84 °F

Scattered clouds.


Feels Like: 87 °F
Forecast: 72 / 92 °F
Wind: 12 mph from Southwest

Location: Philadelphia International Airport

Current Time: Aug 31, 2015 at 8:20:14 PM

Latest Report: Aug 31, 2015 at 7:54 PM


Visibility: 10 mi

Pressure: 30.01 "Hg

Humidity: 59%

Dew point: 68 °F

Location of PhiladelphiaLocation

Historic Weather in Philadelphia — Graph

°F

Philadelphia temperature yesterday

Maximum temperature yesterday: 90 °F (at 3:54 PM)
Minimum temperature yesterday: 70 °F (at 6:54 AM)
Average temperature yesterday: 80 °F

Past Weeks' High & Low Weather Summary

 TemperatureHumidityPressure
High94 °F (Aug 17, 3:54 PM)91% (Aug 19, 6:54 AM)30.23 "Hg (Aug 19, 6:54 AM)
Low64 °F (Aug 27, 5:54 AM)22% (Aug 22, 1:54 PM)29.82 "Hg (Aug 24, 5:54 PM)
Average79 °F57%30.03 "Hg
* Reported Aug 16 6:54 PM — Aug 31 6:54 PM, Philadelphia, Weather by CustomWeather, © 2015

Note: Actual official high and low records may vary slightly from our data, if they occured in-between our weather recording intervals... More about our weather records

Advertising

Philadelphia weather history for previous 24 hours

 ConditionsComfort  
Time TempWeatherWind HumidityBarometerVisibility
6:54 PM
Mon, Aug 31
86 °FScattered clouds.12 mph57%30.00 "Hg10 mi
5:54 PM88 °FBroken clouds.14 mph54%30.00 "Hg10 mi
4:54 PM88 °FBroken clouds.12 mph52%30.00 "Hg10 mi
3:54 PM88 °FBroken clouds.13 mph52%30.00 "Hg10 mi
2:54 PM87 °FBroken clouds.14 mph51%30.01 "Hg10 mi
1:54 PM89 °FBroken clouds.14 mph45%30.03 "Hg10 mi
12:54 PM90 °FBroken clouds.9 mph43%30.05 "Hg10 mi
11:54 AM87 °FBroken clouds.6 mph51%30.06 "Hg10 mi
10:54 AM83 °FPartly sunny.10 mph61%30.07 "Hg10 mi
9:54 AM80 °FBroken clouds.8 mph67%30.06 "Hg10 mi
8:54 AM78 °FPartly sunny.7 mph71%30.07 "Hg10 mi
7:54 AM77 °FLight rain. Mostly cloudy.9 mph71%30.07 "Hg10 mi
6:54 AM76 °FMostly cloudy.8 mph74%30.06 "Hg10 mi
5:54 AM76 °FMostly cloudy.7 mph74%30.05 "Hg10 mi
4:54 AM77 °FMostly cloudy.9 mph69%30.05 "Hg10 mi
3:54 AM78 °FOvercast.10 mph66%30.04 "Hg10 mi
2:54 AM78 °FOvercast.9 mph66%30.05 "Hg10 mi
1:54 AM78 °FOvercast.10 mph66%30.06 "Hg10 mi
12:54 AM79 °FMostly cloudy.10 mph62%30.07 "Hg10 mi
11:54 PM
Sun, Aug 30
80 °FMostly cloudy.13 mph60%30.08 "Hg10 mi
10:54 PM81 °FMostly cloudy.10 mph58%30.07 "Hg10 mi
9:54 PM81 °FPassing clouds.12 mph58%30.07 "Hg10 mi
8:54 PM83 °FPassing clouds.9 mph55%30.06 "Hg10 mi
Weather by CustomWeather, © 2015

See weather overviewHow to use our weather pages